Mineralnyye Vody Airport

Jump to: basic info | weather | frequencies | runways | comments

Related pages: nearby airports | nearby navaids | notams | map

Basic information (top)

Codes: MRV URMM
Location: lon 44.225101, lat 43.081902, elev 1,054 ft / 321 m msl
Status: medium_airport
Scheduled airline service: yes
Links: Wikipedia Mobile

Weather (top)

Current conditions (rec'd 2014/10/30 17:00Z):

URMM 301700Z 11003MPS 4100 BR OVC012 07/07 Q1019 R12/CLRD70 NOSIG RMK MT OBSC QFE736/0981

Airport forecast (rec'd 2014/10/30 15:21Z):

TAF URMM 301353Z 3015/3115 10005G10MPS 3000 BR BKN007 530003 
      TEMPO 3015/3107 VRB02MPS 0300 FG OVC002 
      BECMG 3107/3108 9999 NSW BKN020

Frequencies (top)

Verify before use: may be inaccurate or out of date.

APP: 119.3 MHz (APP)
ATIS: 127.4 MHz (ATIS)
GND: 121.9 MHz (TAXIING)
RDR: 120.7 MHz (KRUG)
TWR: 128 MHz (START)

Runways (top)

12/30: 12,795 x 197 ft (3,900 x 60 m) — paved — lighted

Latest comments (top)

No comments yet for Mineralnyye Vody Airport

More... (top)

See also NOTAMs and nearby airports and navaids, or visit the Mineralnyye Vody Airport page at the main OurAirports website..